Powrót do katalogu

STARLINK-2604

AktywnyŁącznośćVLEO
NORAD 48374·PAYLOAD·🇺🇸 United States

Wystrzelony May 4, 2021 z Cape Canaveral Space Force Station

Loading…

Następne Przeloty (najbliższe 24 godziny)

TLE

ŚwieżeSource: CelesTrak SupGP

Epoka: Sep 14, 2026, 12:45 UTC

1 48374C 21038X   26257.53173611 -.00019779  00000+0 -63649-3 0  2571
2 48374  53.1580 188.9557 0001209  83.5748 133.5622 15.31689901    16

Śledź STARLINK-2604 w czasie rzeczywistym z AllMySat

Download on the App Store